SKK35 FEFF-FKKD

Flight info

Callsign SKK35
Flight time 1h 45m
Altitude 34000
Route FF022 DCT VOTUR DCT TOBAB DCT KOGAN DCT ARKEV DCT LILIK DCT EDEBA EDEBA1M
Aircraft B738/M-SDE2E3FGHIRWXY/LB1

Departure

Time 2026-04-15 18:43
Airport Bangui M'Poko International Airport (FEFF)

Arrival

Time 2026-04-15 20:29
Airport Douala International Airport (FKKD)
Time Latitude Longitude Altitude Speed Heading
2026-04-15 18:14 4.40398 18.52074 1208 ft 0 kts 163°
2026-04-15 18:32 4.40407 18.52071 1208 ft 3 kts 164°
2026-04-15 18:32 4.40432 18.52065 1208 ft 3 kts 166°
2026-04-15 18:32 4.40445 18.52061 1208 ft 2 kts 164°
2026-04-15 18:32 4.40455 18.52058 1208 ft 0 kts 163°
2026-04-15 18:36 4.40449 18.52060 1208 ft 2 kts 163°
2026-04-15 18:36 4.40432 18.52070 1208 ft 2 kts 132°
2026-04-15 18:36 4.40434 18.52087 1208 ft 4 kts 80°
2026-04-15 18:36 4.40459 18.52115 1208 ft 7 kts 357°
2026-04-15 18:37 4.40511 18.52087 1209 ft 10 kts 291°
2026-04-15 18:37 4.40491 18.52020 1209 ft 12 kts 248°
2026-04-15 18:37 4.40466 18.51928 1208 ft 16 kts 252°
2026-04-15 18:37 4.40444 18.51833 1207 ft 13 kts 258°
2026-04-15 18:38 4.40489 18.51776 1209 ft 13 kts 355°
2026-04-15 18:38 4.40575 18.51764 1210 ft 12 kts 347°
2026-04-15 18:38 4.40658 18.51744 1211 ft 12 kts 347°
2026-04-15 18:38 4.40739 18.51725 1211 ft 12 kts 347°
2026-04-15 18:39 4.40816 18.51707 1213 ft 11 kts 346°
2026-04-15 18:39 4.40892 18.51686 1214 ft 11 kts 344°
2026-04-15 18:39 4.40967 18.51667 1216 ft 11 kts 347°
2026-04-15 18:39 4.41044 18.51679 1216 ft 11 kts 11°
2026-04-15 18:40 4.41069 18.51652 1216 ft 5 kts 260°
2026-04-15 18:40 4.41038 18.51646 1216 ft 6 kts 160°
2026-04-15 18:40 4.41025 18.51650 1216 ft 0 kts 162°
2026-04-15 18:43 4.40985 18.51663 1216 ft 25 kts 162°
2026-04-15 18:43 4.40539 18.51783 1209 ft 107 kts 166°
2026-04-15 18:43 4.39593 18.52029 1290 ft 164 kts 165°
2026-04-15 18:43 4.38571 18.52275 2293 ft 135 kts 173°
2026-04-15 18:44 4.37647 18.52565 2989 ft 145 kts 161°
2026-04-15 18:44 4.36613 18.52854 3227 ft 172 kts 186°
2026-04-15 18:44 4.35521 18.52285 3513 ft 197 kts 232°
2026-04-15 18:44 4.35122 18.50910 3763 ft 223 kts 274°
2026-04-15 18:45 4.35521 18.49325 3988 ft 246 kts 286°
2026-04-15 18:45 4.36052 18.47660 4467 ft 254 kts 286°
2026-04-15 18:45 4.36570 18.45943 4978 ft 263 kts 285°
2026-04-15 18:45 4.37084 18.44102 5326 ft 281 kts 284°
2026-04-15 18:46 4.37576 18.42215 6099 ft 285 kts 284°
2026-04-15 18:46 4.38058 18.40265 6830 ft 290 kts 283°
2026-04-15 18:46 4.38530 18.38279 7609 ft 293 kts 284°
2026-04-15 18:46 4.38995 18.36270 8375 ft 297 kts 284°
2026-04-15 18:47 4.39459 18.34231 9111 ft 302 kts 284°
2026-04-15 18:47 4.39920 18.32179 9831 ft 307 kts 285°
2026-04-15 18:47 4.40395 18.30053 10309 ft 320 kts 284°
2026-04-15 18:47 4.40891 18.27830 10807 ft 331 kts 284°
2026-04-15 18:48 4.41393 18.25561 11462 ft 335 kts 284°
2026-04-15 18:48 4.41895 18.23292 12163 ft 338 kts 284°
2026-04-15 18:48 4.42406 18.20979 12859 ft 342 kts 284°
2026-04-15 18:48 4.42924 18.18635 13543 ft 346 kts 284°
2026-04-15 18:49 4.43447 18.16269 14149 ft 349 kts 284°
2026-04-15 18:49 4.43978 18.13872 14739 ft 354 kts 284°
2026-04-15 18:49 4.44462 18.11441 15326 ft 358 kts 278°
2026-04-15 18:49 4.44519 18.08928 15908 ft 363 kts 265°
2026-04-15 18:50 4.44196 18.06435 16494 ft 367 kts 262°
2026-04-15 18:50 4.43798 18.03886 17059 ft 372 kts 261°
2026-04-15 18:50 4.43381 18.01321 17621 ft 376 kts 261°
2026-04-15 18:50 4.42961 17.98715 18160 ft 380 kts 261°
2026-04-15 18:51 4.42544 17.96083 18667 ft 383 kts 261°
2026-04-15 18:51 4.42133 17.93434 19210 ft 385 kts 261°
2026-04-15 18:51 4.41726 17.90772 19725 ft 387 kts 261°
2026-04-15 18:51 4.41318 17.88086 20226 ft 390 kts 261°
2026-04-15 18:52 4.40916 17.85419 20714 ft 393 kts 261°
2026-04-15 18:52 4.40506 17.82696 21206 ft 396 kts 261°
2026-04-15 18:52 4.40093 17.79954 21697 ft 398 kts 261°
2026-04-15 18:52 4.39678 17.77192 22163 ft 401 kts 261°
2026-04-15 18:53 4.39260 17.74414 22649 ft 404 kts 261°
2026-04-15 18:53 4.38843 17.71648 23105 ft 407 kts 261°
2026-04-15 18:53 4.38418 17.68821 23501 ft 411 kts 261°
2026-04-15 18:53 4.37990 17.65978 23829 ft 415 kts 261°
2026-04-15 18:54 4.37558 17.63109 24224 ft 416 kts 261°
2026-04-15 18:54 4.37124 17.60234 24640 ft 417 kts 261°
2026-04-15 18:54 4.36690 17.57353 25018 ft 419 kts 261°
2026-04-15 18:54 4.36253 17.54457 25381 ft 422 kts 261°
2026-04-15 18:55 4.35815 17.51550 25748 ft 424 kts 261°
2026-04-15 18:55 4.35373 17.48618 26136 ft 425 kts 261°
2026-04-15 18:55 4.34929 17.45677 26511 ft 427 kts 261°
2026-04-15 18:55 4.34483 17.42726 26827 ft 431 kts 261°
2026-04-15 18:56 4.34035 17.39751 27162 ft 433 kts 261°
2026-04-15 18:56 4.33588 17.36795 27515 ft 435 kts 261°
2026-04-15 18:56 4.33134 17.33788 27867 ft 437 kts 261°
2026-04-15 18:56 4.32676 17.30757 28208 ft 439 kts 261°
2026-04-15 18:57 4.32218 17.27727 28526 ft 441 kts 261°
2026-04-15 18:57 4.31757 17.24677 28837 ft 444 kts 261°
2026-04-15 18:57 4.31298 17.21638 29155 ft 445 kts 261°
2026-04-15 18:57 4.30832 17.18559 29490 ft 447 kts 261°
2026-04-15 18:58 4.30376 17.15468 29793 ft 449 kts 263°
2026-04-15 18:58 4.30061 17.12334 30063 ft 451 kts 265°
2026-04-15 18:58 4.29836 17.09190 30341 ft 453 kts 266°
2026-04-15 18:58 4.29646 17.06034 30615 ft 454 kts 266°
2026-04-15 18:59 4.29465 17.02901 30882 ft 455 kts 266°
2026-04-15 18:59 4.29275 16.99733 31146 ft 456 kts 266°
2026-04-15 18:59 4.29075 16.96548 31403 ft 458 kts 265°
2026-04-15 18:59 4.28865 16.93343 31654 ft 459 kts 265°
2026-04-15 19:00 4.28652 16.90181 31889 ft 461 kts 265°
2026-04-15 19:00 4.28432 16.86972 32123 ft 462 kts 265°
2026-04-15 19:00 4.28209 16.83741 32354 ft 464 kts 265°
2026-04-15 19:00 4.27986 16.80517 32578 ft 465 kts 265°
2026-04-15 19:01 4.27762 16.77276 32797 ft 467 kts 265°
2026-04-15 19:01 4.27535 16.74007 32922 ft 471 kts 265°
2026-04-15 19:01 4.27307 16.70710 32971 ft 476 kts 264°
2026-04-15 19:02 4.26848 16.64069 33217 ft 482 kts 264°
2026-04-15 19:02 4.26617 16.60721 33494 ft 481 kts 264°
2026-04-15 19:02 4.26387 16.57384 33828 ft 479 kts 264°
2026-04-15 19:03 4.25922 16.50662 33843 ft 482 kts 264°
2026-04-15 19:03 4.25461 16.43999 33838 ft 479 kts 264°
2026-04-15 19:04 4.25000 16.37347 33847 ft 477 kts 264°
2026-04-15 19:04 4.24541 16.30731 33843 ft 476 kts 264°
2026-04-15 19:05 4.24083 16.24150 33845 ft 476 kts 264°
2026-04-15 19:05 4.23621 16.17519 33843 ft 476 kts 264°
2026-04-15 19:06 4.23159 16.10894 33849 ft 477 kts 264°
2026-04-15 19:06 4.22696 16.04278 33845 ft 478 kts 264°
2026-04-15 19:07 4.22309 15.98734 33847 ft 479 kts 264°
2026-04-15 19:07 4.21842 15.92052 33850 ft 481 kts 264°
2026-04-15 19:08 4.21374 15.85382 33848 ft 482 kts 264°
2026-04-15 19:08 4.20903 15.78664 33853 ft 483 kts 264°
2026-04-15 19:09 4.20430 15.71926 33853 ft 484 kts 264°
2026-04-15 19:09 4.19959 15.65224 33856 ft 484 kts 264°
2026-04-15 19:10 4.19487 15.58518 33854 ft 484 kts 264°
2026-04-15 19:10 4.19013 15.51789 33855 ft 483 kts 264°
2026-04-15 19:11 4.18538 15.45065 33854 ft 483 kts 264°
2026-04-15 19:11 4.18064 15.38349 33857 ft 482 kts 264°
2026-04-15 19:12 4.17582 15.31687 33857 ft 482 kts 263°
2026-04-15 19:12 4.16841 15.25005 33863 ft 480 kts 261°
2026-04-15 19:13 4.16006 15.18404 33859 ft 480 kts 261°
2026-04-15 19:13 4.15192 15.11760 33861 ft 480 kts 261°
2026-04-15 19:14 4.14406 15.05116 33857 ft 480 kts 261°
2026-04-15 19:14 4.13634 14.98518 33863 ft 479 kts 261°
2026-04-15 19:15 4.12856 14.91879 33868 ft 479 kts 261°
2026-04-15 19:15 4.12076 14.85229 33869 ft 479 kts 261°
2026-04-15 19:16 4.11299 14.78624 33870 ft 480 kts 261°
2026-04-15 19:16 4.10516 14.71972 33870 ft 480 kts 261°
2026-04-15 19:17 4.09735 14.65334 33869 ft 480 kts 261°
2026-04-15 19:17 4.08955 14.58716 33870 ft 480 kts 261°
2026-04-15 19:18 4.08169 14.52052 33868 ft 480 kts 261°
2026-04-15 19:18 4.06995 14.42098 33868 ft 481 kts 261°
2026-04-15 19:19 4.06208 14.35437 33868 ft 481 kts 261°
2026-04-15 19:19 4.05420 14.28772 33871 ft 481 kts 261°
2026-04-15 19:20 4.04637 14.22151 33872 ft 482 kts 261°
2026-04-15 19:20 4.03847 14.15470 33871 ft 482 kts 261°
2026-04-15 19:21 4.03056 14.08794 33873 ft 482 kts 261°
2026-04-15 19:21 4.02264 14.02116 33876 ft 482 kts 261°
2026-04-15 19:22 4.01475 13.95495 33876 ft 482 kts 261°
2026-04-15 19:22 4.00678 13.88821 33883 ft 482 kts 261°
2026-04-15 19:23 3.99882 13.82152 33877 ft 481 kts 261°
2026-04-15 19:23 3.99086 13.75482 33882 ft 481 kts 261°
2026-04-15 19:24 3.98295 13.68861 33890 ft 481 kts 261°
2026-04-15 19:24 3.97498 13.62201 33886 ft 480 kts 261°
2026-04-15 19:25 3.96708 13.55596 33891 ft 479 kts 261°
2026-04-15 19:25 3.95915 13.48969 33893 ft 479 kts 261°
2026-04-15 19:26 3.95121 13.42342 33891 ft 478 kts 261°
2026-04-15 19:26 3.94328 13.35732 33894 ft 478 kts 261°
2026-04-15 19:27 3.93540 13.29166 33897 ft 477 kts 261°
2026-04-15 19:27 3.92749 13.22572 33896 ft 476 kts 261°
2026-04-15 19:28 3.91957 13.15981 33896 ft 476 kts 261°
2026-04-15 19:28 3.91164 13.09387 33899 ft 475 kts 261°
2026-04-15 19:29 3.90378 13.02853 33894 ft 475 kts 261°
2026-04-15 19:29 3.89587 12.96283 33898 ft 474 kts 261°
2026-04-15 19:30 3.88800 12.89745 33906 ft 474 kts 261°
2026-04-15 19:30 3.88009 12.83185 33900 ft 474 kts 261°
2026-04-15 19:31 3.87217 12.76616 33901 ft 474 kts 261°
2026-04-15 19:31 3.86497 12.70079 33901 ft 475 kts 265°
2026-04-15 19:32 3.86337 12.63453 33909 ft 476 kts 268°
2026-04-15 19:32 3.86325 12.56803 33901 ft 476 kts 268°
2026-04-15 19:33 3.86278 12.50204 33907 ft 476 kts 267°
2026-04-15 19:33 3.86190 12.43529 33908 ft 477 kts 267°
2026-04-15 19:34 3.86089 12.36928 33905 ft 477 kts 267°
2026-04-15 19:34 3.85985 12.30276 33913 ft 477 kts 267°
2026-04-15 19:35 3.85883 12.23650 33914 ft 477 kts 267°
2026-04-15 19:35 3.85781 12.16998 33915 ft 478 kts 267°
2026-04-15 19:36 3.85679 12.10337 33913 ft 478 kts 267°
2026-04-15 19:36 3.85576 12.03665 33916 ft 478 kts 267°
2026-04-15 19:37 3.85473 11.97031 33914 ft 478 kts 267°
2026-04-15 19:37 3.85369 11.90382 33921 ft 478 kts 267°
2026-04-15 19:38 3.85265 11.83705 33928 ft 478 kts 267°
2026-04-15 19:38 3.85159 11.77032 33940 ft 478 kts 267°
2026-04-15 19:39 3.85055 11.70408 33947 ft 479 kts 267°
2026-04-15 19:39 3.84948 11.63739 33958 ft 478 kts 267°
2026-04-15 19:40 3.84842 11.57065 33961 ft 479 kts 267°
2026-04-15 19:40 3.84734 11.50388 33960 ft 479 kts 267°
2026-04-15 19:41 3.84627 11.43726 33952 ft 479 kts 267°
2026-04-15 19:41 3.84519 11.37099 33943 ft 479 kts 267°
2026-04-15 19:42 3.84413 11.30482 33906 ft 462 kts 267°
2026-04-15 19:42 3.84363 11.27309 33898 ft 447 kts 267°
2026-04-15 19:42 3.84314 11.24280 33896 ft 434 kts 267°
2026-04-15 19:43 3.84266 11.21309 33887 ft 420 kts 267°
2026-04-15 19:43 3.84219 11.18415 33888 ft 407 kts 267°
2026-04-15 19:43 3.84173 11.15615 33888 ft 394 kts 267°
2026-04-15 19:43 3.84128 11.12895 33892 ft 387 kts 267°
2026-04-15 19:44 3.84033 11.07461 33925 ft 399 kts 266°
2026-04-15 19:44 3.83935 11.01803 33920 ft 412 kts 267°
2026-04-15 19:45 3.83840 10.96029 33907 ft 413 kts 267°
2026-04-15 19:45 3.83747 10.90351 33885 ft 403 kts 267°
2026-04-15 19:46 3.83652 10.84749 33905 ft 405 kts 267°
2026-04-15 19:46 3.83881 10.79089 33902 ft 409 kts 276°
2026-04-15 19:47 3.84743 10.73431 33889 ft 411 kts 277°
2026-04-15 19:47 3.85632 10.67788 33893 ft 413 kts 277°
2026-04-15 19:48 3.86495 10.62094 33882 ft 413 kts 277°
2026-04-15 19:48 3.87339 10.56400 33881 ft 413 kts 277°
2026-04-15 19:49 3.88177 10.50713 33876 ft 411 kts 277°
2026-04-15 19:49 3.89005 10.45092 33876 ft 409 kts 277°
2026-04-15 19:50 3.89833 10.39472 33878 ft 407 kts 277°
2026-04-15 19:50 3.90659 10.33862 33879 ft 406 kts 277°
2026-04-15 19:51 3.91482 10.28267 33874 ft 405 kts 277°
2026-04-15 19:51 3.92300 10.22705 33873 ft 406 kts 277°
2026-04-15 19:52 3.93124 10.17101 33876 ft 406 kts 277°
2026-04-15 19:52 3.93947 10.11479 33871 ft 407 kts 277°
2026-04-15 19:53 3.94627 10.06804 33867 ft 408 kts 277°
2026-04-15 19:53 3.95443 10.01197 33864 ft 409 kts 277°
2026-04-15 19:54 3.96127 9.98441 33836 ft 410 kts 297°
2026-04-15 19:54 3.97794 9.96149 33667 ft 411 kts 317°
2026-04-15 19:54 4.00207 9.94570 32560 ft 417 kts 344°
2026-04-15 19:54 4.03955 9.94234 31407 ft 409 kts 16°
2026-04-15 19:55 4.05756 9.94842 30825 ft 405 kts 31°
2026-04-15 19:55 4.08298 9.96003 29989 ft 412 kts 17°
2026-04-15 19:55 4.11195 9.96187 28996 ft 424 kts 353°
2026-04-15 19:55 4.13990 9.95193 28035 ft 433 kts 329°
2026-04-15 19:56 4.16224 9.93168 27100 ft 438 kts 306°
2026-04-15 19:56 4.17625 9.90458 26245 ft 439 kts 292°
2026-04-15 19:56 4.18801 9.87635 25362 ft 438 kts 298°
2026-04-15 19:56 4.20256 9.84955 24520 ft 437 kts 299°
2026-04-15 19:57 4.21553 9.82197 23694 ft 437 kts 292°
2026-04-15 19:57 4.22473 9.79308 22765 ft 436 kts 283°
2026-04-15 19:57 4.22948 9.76311 21811 ft 434 kts 275°
2026-04-15 19:57 4.22992 9.73336 20907 ft 432 kts 266°
2026-04-15 19:58 4.22632 9.70336 20288 ft 422 kts 258°
2026-04-15 19:58 4.21915 9.67572 20159 ft 399 kts 249°
2026-04-15 19:58 4.20932 9.65084 20040 ft 379 kts 245°
2026-04-15 19:58 4.19808 9.62761 19930 ft 360 kts 240°
2026-04-15 19:59 4.18523 9.60660 19703 ft 346 kts 232°
2026-04-15 19:59 4.17020 9.58785 19226 ft 343 kts 225°
2026-04-15 19:59 4.15357 9.57126 18710 ft 342 kts 219°
2026-04-15 19:59 4.13535 9.55632 18406 ft 332 kts 214°
2026-04-15 20:00 4.11664 9.54363 18273 ft 317 kts 208°
2026-04-15 20:00 4.09762 9.53309 17992 ft 307 kts 205°
2026-04-15 20:00 4.07977 9.52164 17615 ft 305 kts 225°
2026-04-15 20:00 4.06937 9.50356 17142 ft 306 kts 257°
2026-04-15 20:01 4.06900 9.48252 16685 ft 303 kts 282°
2026-04-15 20:01 4.07500 9.46255 16228 ft 298 kts 302°
2026-04-15 20:01 4.08790 9.44656 15792 ft 291 kts 323°
2026-04-15 20:01 4.10489 9.43679 15375 ft 282 kts 345°
2026-04-15 20:02 4.12381 9.43400 14953 ft 273 kts
2026-04-15 20:02 4.14218 9.43767 14558 ft 266 kts 24°
2026-04-15 20:02 4.15902 9.44518 14171 ft 263 kts 29°
2026-04-15 20:02 4.17538 9.45336 13793 ft 262 kts 29°
2026-04-15 20:03 4.19164 9.46150 13395 ft 260 kts 29°
2026-04-15 20:03 4.20783 9.46951 12990 ft 258 kts 29°
2026-04-15 20:03 4.22369 9.47736 12586 ft 256 kts 31°
2026-04-15 20:03 4.23806 9.48750 12165 ft 251 kts 51°
2026-04-15 20:04 4.24809 9.50163 11738 ft 248 kts 68°
2026-04-15 20:04 4.25298 9.51803 11339 ft 246 kts 84°
2026-04-15 20:04 4.25270 9.53510 10956 ft 245 kts 100°
2026-04-15 20:04 4.24686 9.55107 10569 ft 246 kts 117°
2026-04-15 20:05 4.23633 9.56441 10191 ft 248 kts 134°
2026-04-15 20:05 4.22181 9.57395 9815 ft 252 kts 154°
2026-04-15 20:05 4.20471 9.57827 9391 ft 257 kts 174°
2026-04-15 20:05 4.18685 9.57657 8999 ft 259 kts 191°
2026-04-15 20:06 4.16992 9.57023 8622 ft 259 kts 203°
2026-04-15 20:06 4.15381 9.56221 8274 ft 257 kts 205°
2026-04-15 20:06 4.13811 9.55424 7940 ft 254 kts 205°
2026-04-15 20:06 4.12234 9.54637 7596 ft 252 kts 205°
2026-04-15 20:07 4.10662 9.53861 7247 ft 250 kts 205°
2026-04-15 20:07 4.09158 9.53013 6894 ft 248 kts 219°
2026-04-15 20:07 4.08208 9.51600 6516 ft 247 kts 254°
2026-04-15 20:07 4.08096 9.49914 6210 ft 242 kts 280°
2026-04-15 20:08 4.08768 9.48391 5840 ft 240 kts 313°
2026-04-15 20:08 4.10010 9.47429 5778 ft 220 kts 335°
2026-04-15 20:08 4.11449 9.47175 5655 ft 202 kts
2026-04-15 20:08 4.12763 9.47462 5470 ft 189 kts 21°
2026-04-15 20:09 4.13958 9.48009 5116 ft 188 kts 26°
2026-04-15 20:09 4.15131 9.48593 4763 ft 188 kts 26°
2026-04-15 20:09 4.16300 9.49174 4416 ft 186 kts 26°
2026-04-15 20:09 4.17244 9.49640 4128 ft 185 kts 26°
2026-04-15 20:10 4.17995 9.50010 3904 ft 185 kts 26°
2026-04-15 20:10 4.18825 9.50418 3656 ft 184 kts 26°
2026-04-15 20:10 4.19883 9.51072 3350 ft 181 kts 38°
2026-04-15 20:10 4.20519 9.52101 3169 ft 176 kts 85°
2026-04-15 20:11 4.20126 9.53231 3118 ft 181 kts 138°
2026-04-15 20:11 4.18983 9.53701 3096 ft 185 kts 179°
2026-04-15 20:11 4.18053 9.53687 3033 ft 183 kts 181°
2026-04-15 20:11 4.16978 9.53666 3015 ft 182 kts 181°
2026-04-15 20:12 4.15714 9.53639 3012 ft 179 kts 182°
2026-04-15 20:12 4.14499 9.53611 3024 ft 168 kts 182°
2026-04-15 20:12 4.13354 9.53585 3000 ft 161 kts 182°
2026-04-15 20:12 4.12235 9.53558 3006 ft 160 kts 182°
2026-04-15 20:13 4.11112 9.53532 3009 ft 162 kts 182°
2026-04-15 20:13 4.10018 9.53731 2982 ft 162 kts 145°
2026-04-15 20:13 4.09424 9.54635 3022 ft 159 kts 111°
2026-04-15 20:13 4.08926 9.55648 3009 ft 163 kts 119°
2026-04-15 20:14 4.08384 9.56656 3003 ft 165 kts 118°
2026-04-15 20:14 4.07849 9.57681 2912 ft 167 kts 117°
2026-04-15 20:14 4.07319 9.58716 2697 ft 167 kts 117°
2026-04-15 20:14 4.06795 9.59744 2486 ft 164 kts 117°
2026-04-15 20:15 4.06283 9.60754 2265 ft 162 kts 117°
2026-04-15 20:15 4.05781 9.61743 2056 ft 161 kts 117°
2026-04-15 20:15 4.05267 9.62757 1849 ft 161 kts 118°
2026-04-15 20:15 4.04769 9.63739 1635 ft 160 kts 118°
2026-04-15 20:16 4.04268 9.64728 1409 ft 159 kts 118°
2026-04-15 20:16 4.03773 9.65704 1211 ft 155 kts 118°
2026-04-15 20:16 4.03288 9.66662 999 ft 154 kts 117°
2026-04-15 20:16 4.02804 9.67616 819 ft 154 kts 117°
2026-04-15 20:17 4.02319 9.68573 632 ft 153 kts 117°
2026-04-15 20:17 4.01837 9.69518 401 ft 152 kts 117°
2026-04-15 20:17 4.01366 9.70457 227 ft 152 kts 115°
2026-04-15 20:17 4.00897 9.71398 61 ft 150 kts 115°
2026-04-15 20:18 4.00441 9.72341 45 ft 150 kts 118°
2026-04-15 20:18 3.99989 9.73288 43 ft 150 kts 103°
2026-04-15 20:18 3.99745 9.74271 573 ft 143 kts 94°
2026-04-15 20:18 3.99709 9.75273 1273 ft 153 kts 88°
2026-04-15 20:19 3.99647 9.76419 1381 ft 164 kts 88°
2026-04-15 20:19 3.99677 9.77564 1262 ft 168 kts 85°
2026-04-15 20:19 3.99806 9.78743 969 ft 166 kts 82°
2026-04-15 20:19 3.99930 9.79902 795 ft 176 kts 83°
2026-04-15 20:20 4.00075 9.81264 748 ft 209 kts 82°
2026-04-15 20:20 4.00241 9.82726 732 ft 215 kts 82°
2026-04-15 20:20 4.00411 9.84223 738 ft 216 kts 82°
2026-04-15 20:20 4.00586 9.85704 1281 ft 214 kts 82°
2026-04-15 20:21 4.00762 9.87169 2211 ft 207 kts 82°
2026-04-15 20:21 4.00920 9.88569 2712 ft 197 kts 82°
2026-04-15 20:21 4.01080 9.89997 3042 ft 220 kts 82°
2026-04-15 20:21 4.01269 9.91643 3035 ft 253 kts 83°
2026-04-15 20:22 4.01238 9.93462 2998 ft 268 kts 107°
2026-04-15 20:22 4.00261 9.95032 3017 ft 270 kts 140°
2026-04-15 20:22 3.98640 9.95836 3014 ft 260 kts 168°
2026-04-15 20:22 3.96916 9.95821 2997 ft 240 kts 195°
2026-04-15 20:23 3.95483 9.95076 3005 ft 232 kts 222°
2026-04-15 20:23 3.94338 9.93967 3018 ft 220 kts 224°
2026-04-15 20:23 3.93304 9.92940 3003 ft 197 kts 224°
2026-04-15 20:23 3.92403 9.92032 2996 ft 177 kts 230°
2026-04-15 20:24 3.91889 9.90996 3016 ft 159 kts 255°
2026-04-15 20:24 3.92176 9.88907 3038 ft 156 kts 291°
2026-04-15 20:24 3.92578 9.87979 3018 ft 156 kts 292°
2026-04-15 20:25 3.93046 9.86984 2938 ft 158 kts 294°
2026-04-15 20:25 3.93477 9.86107 2762 ft 159 kts 294°
2026-04-15 20:25 3.93973 9.85117 2559 ft 157 kts 294°
2026-04-15 20:25 3.94454 9.84158 2361 ft 152 kts 295°
2026-04-15 20:26 3.94929 9.83213 2174 ft 152 kts 294°
2026-04-15 20:26 3.95405 9.82267 1981 ft 153 kts 295°
2026-04-15 20:26 3.95884 9.81316 1786 ft 152 kts 295°
2026-04-15 20:26 3.96353 9.80385 1591 ft 152 kts 294°
2026-04-15 20:27 3.96828 9.79442 1402 ft 152 kts 295°
2026-04-15 20:27 3.97309 9.78487 1197 ft 152 kts 295°
2026-04-15 20:27 3.97783 9.77546 1000 ft 151 kts 295°
2026-04-15 20:27 3.98257 9.76606 820 ft 151 kts 295°
2026-04-15 20:28 3.98721 9.75674 626 ft 152 kts 294°
2026-04-15 20:28 3.99178 9.74719 391 ft 151 kts 296°
2026-04-15 20:28 3.99675 9.73793 170 ft 150 kts 298°
2026-04-15 20:28 4.00150 9.72871 39 ft 141 kts 296°
2026-04-15 20:29 4.00543 9.72077 30 ft 109 kts 297°
2026-04-15 20:29 4.00815 9.71531 34 ft 66 kts 295°
2026-04-15 20:29 4.00926 9.71328 36 ft 12 kts 327°
2026-04-15 20:29 4.00974 9.71332 34 ft 0 kts 21°
2026-04-15 20:31 4.01038 9.71366 35 ft 21 kts 44°
2026-04-15 20:31 4.01027 9.71481 35 ft 15 kts 119°
2026-04-15 20:31 4.01040 9.71565 35 ft 14 kts 31°
2026-04-15 20:31 4.01100 9.71600 35 ft 5 kts 31°
2026-04-15 20:32 4.01128 9.71616 34 ft 2 kts 26°
2026-04-15 20:32 4.01138 9.71621 35 ft 2 kts 26°
2026-04-15 20:32 4.01146 9.71627 35 ft 2 kts 45°
2026-04-15 20:32 4.01150 9.71636 35 ft 0 kts 70°
2026-04-15 20:33 4.01148 9.71643 35 ft 1 kts 108°
2026-04-15 20:33 4.01143 9.71650 35 ft 2 kts 124°
2026-04-15 20:33 4.01134 9.71665 35 ft 3 kts 120°
2026-04-15 20:34 4.01130 9.71671 35 ft 0 kts 120°